TimeEST,TemperatureF,Dew PointF,Humidity,Sea Level PressureIn,VisibilityMPH,Wind Direction,Wind SpeedMPH,Gust SpeedMPH,PrecipitationIn,Events,Conditions,WindDirDegrees,DateUTC
12:52 AM,43.0,33.1,68,29.84,10.0,WNW,8.1,-,N/A,,Mostly Cloudy,290,2013-02-24 05:52:00
1:52 AM,41.0,32.0,70,29.83,10.0,West,4.6,-,N/A,,Mostly Cloudy,280,2013-02-24 06:52:00
2:52 AM,39.9,30.0,68,29.84,10.0,WNW,6.9,-,N/A,,Mostly Cloudy,290,2013-02-24 07:52:00
3:52 AM,37.0,28.0,70,29.83,10.0,NW,6.9,-,N/A,,Mostly Cloudy,310,2013-02-24 08:52:00
4:52 AM,36.0,27.0,70,29.85,10.0,WNW,8.1,-,N/A,,Overcast,290,2013-02-24 09:52:00
5:18 AM,35.6,26.6,70,29.86,10.0,West,6.9,-,N/A,,Scattered Clouds,280,2013-02-24 10:18:00
5:37 AM,35.6,26.6,70,29.88,10.0,West,8.1,-,N/A,,Mostly Cloudy,270,2013-02-24 10:37:00
5:52 AM,35.1,26.1,70,29.87,10.0,West,9.2,-,N/A,,Overcast,280,2013-02-24 10:52:00
6:42 AM,33.8,24.8,70,29.91,10.0,West,8.1,-,N/A,,Scattered Clouds,280,2013-02-24 11:42:00
6:52 AM,34.0,25.0,70,29.91,10.0,WNW,8.1,18.4,N/A,,Partly Cloudy,290,2013-02-24 11:52:00
7:52 AM,33.1,25.0,72,29.93,10.0,WNW,10.4,-,N/A,,Clear,290,2013-02-24 12:52:00
8:52 AM,35.1,24.1,64,29.95,10.0,WNW,11.5,18.4,N/A,,Clear,290,2013-02-24 13:52:00
9:52 AM,37.0,24.1,59,29.96,10.0,West,9.2,18.4,N/A,,Scattered Clouds,280,2013-02-24 14:52:00
10:52 AM,39.0,23.0,53,29.97,10.0,West,15.0,25.3,N/A,,Partly Cloudy,270,2013-02-24 15:52:00
11:52 AM,41.0,21.9,47,29.96,10.0,WNW,12.7,23.0,N/A,,Clear,290,2013-02-24 16:52:00
12:52 PM,43.0,19.9,40,29.94,10.0,West,13.8,23.0,N/A,,Clear,270,2013-02-24 17:52:00
1:52 PM,44.1,19.0,37,29.94,10.0,NW,16.1,25.3,N/A,,Clear,310,2013-02-24 18:52:00
2:52 PM,45.0,17.1,33,29.95,10.0,WNW,13.8,26.5,N/A,,Clear,290,2013-02-24 19:52:00
3:52 PM,46.0,18.0,33,29.96,10.0,West,15.0,23.0,N/A,,Clear,270,2013-02-24 20:52:00
4:52 PM,44.1,19.0,37,29.98,10.0,West,13.8,-,N/A,,Clear,280,2013-02-24 21:52:00
5:52 PM,42.1,17.1,37,30.00,10.0,WNW,6.9,20.7,N/A,,Clear,290,2013-02-24 22:52:00
6:52 PM,39.9,17.1,40,30.03,10.0,WNW,6.9,-,N/A,,Clear,300,2013-02-24 23:52:00
7:52 PM,37.9,16.0,41,30.05,10.0,WNW,8.1,-,N/A,,Clear,300,2013-02-25 00:52:00
8:52 PM,37.0,17.1,44,30.06,10.0,WNW,9.2,-,N/A,,Clear,290,2013-02-25 01:52:00
9:52 PM,36.0,17.1,46,30.07,10.0,WNW,4.6,-,N/A,,Clear,300,2013-02-25 02:52:00
10:52 PM,35.1,17.1,48,30.06,10.0,WNW,5.8,-,N/A,,Clear,300,2013-02-25 03:52:00
11:52 PM,33.1,18.0,54,30.06,10.0,Calm,Calm,-,N/A,,Clear,0,2013-02-25 04:52:00